Location: C�mpuri de-Sus
(45.9500°N, 22.5500°E)
Time: 06:59:31
(UTC+00:00)

Meteor 1-11 - Visible Passes

Search period start: 17 May 2022 00:00
Search period end: 27 May 2022 00:00
Orbit: 841 x 886 km, 81.2° (Epoch: 16 May)

Date Brightness Start Highest point End Pass type
(mag) Time Alt. Az. Time Alt. Az. Time Alt. Az.
17 May 6.1 02:19:23 10° SSE 02:24:30 33° E 02:29:37 10° NNE visible
18 May 6.1 02:11:16 10° SSE 02:16:21 33° E 02:21:27 10° NNE visible
19 May 6.1 02:03:07 10° SSE 02:08:12 32° E 02:13:17 10° NNE visible
20 May 6.1 01:54:59 10° SSE 02:00:04 32° E 02:05:08 10° NNE visible
21 May 6.0 01:46:51 10° SSE 01:51:55 32° E 01:56:59 10° NNE visible
22 May 6.0 01:38:43 10° SSE 01:43:46 32° E 01:48:49 10° NNE visible
23 May 6.0 01:30:35 10° SSE 01:35:37 32° E 01:40:40 10° NNE visible
24 May 6.0 01:22:27 10° SSE 01:27:28 31° E 01:32:30 10° NNE visible
25 May 6.0 01:14:18 10° SSE 01:19:20 31° E 01:24:21 10° NNE visible
26 May 5.9 01:06:11 10° SSE 01:11:11 31° E 01:16:10 10° NNE visible
